Regional Weather Roundup
Issued by NWS Burlington, VT

Home | Current Version | Previous Version | Text Only | Print | Product List | Glossary On
Versions: 1 2 3 4 5 6 7 8 9 10 11 12 13 14 15 16 17 18 19 20 21 22 23 24 25 26 27 28 29 30 31 32 33 34 35 36 37 38 39 40 41 42 43 44 45 46 47 48 49 50
000
ASUS41 KBTV 232230
RWRBTV
VERMONT REGIONAL WEATHER ROUNDUP
NATIONAL WEATHER SERVICE BURLINGTON VT
500 PM EST TUE JAN 23 2018

NOTE: "FAIR" INDICATES FEW OR NO CLOUDS BELOW 12,000 FEET WITH NO
SIGNIFICANT WEATHER AND/OR OBSTRUCTIONS TO VISIBILITY.

* THESE REPORTS ARE NOT UNDER NWS QUALITY CONTROL AND/OR DO NOT
  REPORT WEATHER SUCH AS PRECIPITATION AND FOG.

VTZ001>019-232300-
_____VERMONT_____


CITY           SKY/WX    TMP DP  RH WIND       PRES   REMARKS
BURLINGTON     MOCLDY    41  39  93 S5        29.42F
MONTPELIER     FOG       34  34 100 CALM      29.48F VSB 1
MORRISVILLE    CLOUDY    34  34 100 SE3       29.45F
ST. JOHNSBURY*   N/A     35  35 100 MISG      29.48F
LYNDONVILLE*   LGT RAIN  35  34  99 E5        29.47F WCI  31
MIDDLEBURY*    MOCLDY    37  36  98 CALM      29.44F FOG
RUTLAND*       CLOUDY    39  39 100 SE9       29.47F
SPRINGFIELD    FOG       32  32 100 W3        29.50F VSB 3/4
HIGHGATE*      FOG       39  39 100 SW3       29.43F VSB 1/2
NEWPORT*       CLOUDY    36  35  99 S5        29.43F WCI  32
BENNINGTON     LGT RAIN  43  41  93 SE6       29.49F VSB 1
SUTTON*          N/A     32 N/A N/A MISG        N/A
ISLAND POND*     N/A     36 N/A N/A CALM        N/A
GALLUP MILLS*    N/A     32 N/A N/A MISG        N/A
UNION VILLAGE*   N/A     34 N/A N/A MISG        N/A

_____LAKE CHAMPLAIN_____


CITY           SKY/WX    TMP DP  RH WIND       PRES   REMARKS
BURTON ISLAND*   N/A     37  37 100 SW10G18     N/A  WCI  30
COLCHESTER RF*   N/A     39  39 100 S16         N/A  WCI  30
DIAMOND ISL*     N/A     41  43 100 S17         N/A

$$

NYZ007-026>031-035-052-083-087-232300-
_____NORTHERN NEW YORK_____


CITY           SKY/WX    TMP DP  RH WIND       PRES   REMARKS
PLATTSBURGH    FOG       36  35  96 CALM      29.41F VSB 1/4
SARANAC LAKE   LGT RAIN  36  35  96 SW9       29.45R WCI  29
MASSENA        CLOUDY    34  34 100 CALM      29.47R FOG
OGDENSBURG*    LGT RAIN  41  37  86 SW15      29.47R
POTSDAM*       CLOUDY    43  39  87 SW10      29.46R
STARK FALLS*     N/A     37 N/A N/A SW20        N/A  WCI  27
WATERTOWN      CLOUDY    38  36  92 SW16G24   29.53R WCI  29
FT DRUM        LGT RAIN  38  35  90 SW14G22   29.51R WCI  29
ALBANY         CLOUDY    44  42  93 SW7       29.53R FOG
GLENS FALLS    FOG       38  38 100 CALM      29.49S VSB<1/4

$$
NHZ002-005-011-232300-
_____NEW HAMPSHIRE_____


CITY           SKY/WX    TMP DP  RH WIND       PRES   REMARKS
LEBANON        CLOUDY    35  34  96 SE3       29.48F FOG
KEENE          CLOUDY    34  34 100 S3        29.51S FOG
MT WASHINGTON  FOG       30  30 100 W35         N/A  VSB 1/8 WCI  14
PLYMOUTH       CLOUDY    32  32  99 CALM      29.49F FOG
WHITEFIELD     FOG       35  34  96 CALM      29.47F VSB 1

$$

_____REGIONAL QUEBEC LOCATIONS_____


CITY           SKY/WX    TMP DP  RH WIND       PRES   REMARKS
MONTREAL       FRZ RAIN  27  25  93 N9        29.47R FOG     WCI  17
QUEBEC CITY    FRZ RAIN  21  18  86 E23G30    29.53F WCI   5
SHERBROOKE     LGT RAIN  34  34 100 VRB2      29.42F VSB 3/4

_____REGIONAL ONTARIO LOCATIONS_____


CITY           SKY/WX    TMP DP  RH WIND       PRES   REMARKS
OTTAWA         FOG       32  32 100 S5        29.42R VSB 1/4 WCI  27

______KEY______
VSB  - VISIBILITY IN MILES
WCI  - WIND CHILL INDEX
HX   - HEAT INDEX
$$
NNNN



USA.gov is the U.S. government's official web portal to all federal, state and local government web resources and services.